Flag for Burkina Faso Weather past 2 weeks in Koudougou, Burkina Faso

Now
77 °F

Passing clouds.


Feels Like: 78 °F
Forecast: 74 / 84 °F
Wind: 6 mph from West

Location: Ouagadougou Airport

Current Time: Aug 30, 2015 at 8:43:41 AM

Latest Report: Aug 30, 2015 at 8:00 AM


Visibility: N/A

Pressure: 30.04 "Hg

Humidity: 89%

Dew point: 73 °F

Location of KoudougouLocation

Historic Weather in Koudougou — Graph

°F

Koudougou temperature yesterday

Maximum temperature yesterday: 84 °F (at 2:00 PM)
Minimum temperature yesterday: 72 °F (at 10:00 AM)
Average temperature yesterday: 78 °F

Past Weeks' High & Low Weather Summary

 TemperatureHumidityPressure
High93 °F (Aug 24, 2:00 PM)100% (Aug 16, 3:00 AM)30.07 "Hg (Aug 16, 3:00 AM)
Low70 °F (Aug 26, 8:00 PM)52% (Aug 23, 3:00 PM)29.80 "Hg (Aug 24, 4:00 PM)
Average80 °F83%29.93 "Hg
* Reported Aug 15 7:00 AM — Aug 30 7:00 AM, Koudougou, Weather by CustomWeather, © 2015

Note: Actual official high and low records may vary slightly from our data, if they occured in-between our weather recording intervals... More about our weather records

Advertising

Koudougou weather history for previous 24 hours

 ConditionsComfort  
Time TempWeatherWind HumidityBarometerVisibility
7:00 AM
Sun, Aug 30
75 °FPassing clouds.6 mph94%30.01 "HgN/A
6:00 AM75 °FPassing clouds.2 mph94%29.98 "HgN/A
5:00 AM75 °FPassing clouds.3 mph94%29.98 "HgN/A
4:00 AM75 °FClear.6 mph94%29.98 "Hg10 mi
3:00 AM75 °FClear.2 mph94%29.98 "Hg10 mi
2:00 AM77 °FClear.3 mph89%29.98 "Hg10 mi
1:00 AM77 °FClear.3 mph94%30.01 "Hg10 mi
12:00 AM77 °FPassing clouds.No wind94%30.01 "HgN/A
11:00 PM
Sat, Aug 29
77 °FPassing clouds.5 mph94%30.01 "HgN/A
10:00 PM77 °FPassing clouds.No wind94%30.01 "HgN/A
9:00 PM77 °FPassing clouds.No wind94%29.98 "HgN/A
8:00 PM79 °FPassing clouds.1 mph89%29.95 "HgN/A
7:00 PM79 °FThunderstorms. Passing clouds.2 mph84%29.95 "HgN/A
6:00 PM81 °FScattered clouds.6 mph79%29.92 "HgN/A
5:00 PM82 °FScattered clouds.7 mph70%29.92 "HgN/A
4:00 PM84 °FScattered clouds.7 mph66%29.92 "HgN/A
3:00 PM84 °FScattered clouds.6 mph66%29.95 "HgN/A
2:00 PM84 °FPassing clouds.1 mph62%29.95 "HgN/A
1:00 PM81 °FPassing clouds.2 mph70%29.98 "HgN/A
12:00 PM75 °FPassing clouds.1 mph89%30.01 "HgN/A
11:00 AM72 °FThunderstorms. Passing clouds.7 mph100%30.04 "HgN/A
10:00 AM72 °FThunderstorms. Scattered clouds.10 mph94%30.07 "Hg4 mi
9:00 AM79 °FPartly sunny.8 mph89%30.04 "Hg5 mi
8:00 AM79 °FPartly sunny.2 mph94%30.01 "HgN/A
Weather by CustomWeather, © 2015

See weather overviewHow to use our weather pages